User: anonymous   Login
Location: Red Shale Campground
(45.5700°N, 106.1600°W)
Time: 07:07:59
(UTC-06:00)
Language:

FENGYUN 3A - Orbit

View from above orbital plane
View from above orbital plane
View from above satellite
View from above satellite

Ground track
Ground track

The orbit data is extracted from the following two-line orbital elements,

1 32958U 08026A   16121.19914795  .00000020  00000-0  28973-4 0  9994
2 32958  98.4573 163.3978 0010546  44.3912 315.8109 14.19615220410745
Epoch (UTC): 30 April 2016 04:46:46
Eccentricity: 0.0010546
inclination: 98.4573°
perigee height: 819 km
apogee height: 834 km
right ascension of ascending node: 163.3978°
argument of perigee: 44.3912°
revolutions per day: 14.19615220
mean anomaly at epoch: 315.8109°
orbit number at epoch: 41074

The dashed part of the orbit path shows where the satellite is in the earth's shadow,  

DLR